Total_Precipitation_Accumulation
0.09 0.11 0.16 0.20 0.24 0.32 0.41 0.46 0.50 0.59 0.72 0.83 0.89 0.88 0.94 0.89 0.80 0.74 0.77 0.78 0.75 0.69 0.63 0.57 0.51 0.54 0.55 0.53 0.48 0.45 0.46 0.45 0.44 0.46 0.44 0.41 0.39 0.36 0.33 0.37 0.49 0.59 0.61
0.10 0.11 0.16 0.24 0.27 0.32 0.40 0.48 0.50 0.54 0.62 0.65 0.73 0.79 0.80 0.82 0.81 0.75 0.74 0.80 0.80 0.74 0.70 0.66 0.58 0.51 0.52 0.52 0.51 0.47 0.45 0.44 0.39 0.42 0.48 0.43 0.40 0.39 0.31 0.27 0.34 0.44 0.52
0.10 0.10 0.13 0.23 0.28 0.30 0.38 0.44 0.51 0.51 0.59 0.65 0.78 0.86 0.92 0.92 0.89 0.84 0.79 0.77 0.79 0.77 0.71 0.66 0.63 0.57 0.52 0.49 0.49 0.48 0.47 0.46 0.41 0.38 0.54 0.59 0.43 0.31 0.22 0.21 0.25 0.27 0.31
0.11 0.10 0.12 0.19 0.25 0.28 0.37 0.44 0.52 0.59 0.60 0.69 0.79 0.79 0.79 0.79 0.72 0.72 0.73 0.78 0.80 0.79 0.76 0.71 0.67 0.63 0.58 0.53 0.48 0.48 0.47 0.49 0.50 0.44 0.42 0.45 0.45 0.48 0.32 0.16 0.16 0.15 0.16
0.12 0.11 0.11 0.17 0.23 0.29 0.37 0.46 0.50 0.63 0.66 0.67 0.74 0.74 0.70 0.68 0.69 0.74 0.78 0.79 0.82 0.84 0.79 0.75 0.72 0.65 0.59 0.56 0.54 0.50 0.51 0.52 0.52 0.50 0.46 0.42 0.37 0.39 0.50 0.33 0.19 0.18 0.16
0.15 0.15 0.14 0.17 0.23 0.30 0.38 0.44 0.51 0.62 0.71 0.70 0.75 0.75 0.71 0.69 0.73 0.77 0.85 0.86 0.87 0.91 0.88 0.78 0.76 0.70 0.60 0.55 0.57 0.56 0.53 0.53 0.52 0.50 0.49 0.53 0.54 0.45 0.49 0.45 0.27 0.23 0.21
0.19 0.19 0.16 0.19 0.22 0.29 0.38 0.43 0.47 0.60 0.71 0.72 0.73 0.74 0.70 0.68 0.70 0.74 0.80 0.84 0.87 0.90 0.90 0.85 0.79 0.75 0.67 0.57 0.58 0.62 0.60 0.57 0.58 0.56 0.53 0.51 0.51 0.49 0.55 0.59 0.44 0.31 0.25
0.20 0.21 0.18 0.20 0.23 0.28 0.35 0.42 0.44 0.53 0.68 0.70 0.70 0.72 0.70 0.66 0.66 0.70 0.73 0.79 0.76 0.76 0.83 0.88 0.87 0.79 0.73 0.68 0.64 0.64 0.62 0.63 0.65 0.62 0.59 0.57 0.50 0.51 0.58 0.68 0.75 0.64 0.37
0.14 0.21 0.19 0.22 0.26 0.31 0.33 0.41 0.46 0.52 0.65 0.72 0.69 0.71 0.72 0.70 0.63 0.65 0.69 0.76 0.75 0.69 0.73 0.83 0.91 0.92 0.86 0.79 0.75 0.73 0.66 0.65 0.68 0.70 0.70 0.69 0.61 0.55 0.55 0.62 0.80 1.02 0.82
0.13 0.17 0.17 0.22 0.28 0.32 0.32 0.37 0.47 0.52 0.60 0.68 0.70 0.72 0.75 0.73 0.67 0.66 0.67 0.68 0.73 0.74 0.72 0.74 0.81 0.87 0.92 0.92 0.87 0.83 0.77 0.74 0.72 0.74 0.78 0.80 0.77 0.73 0.67 0.64 0.67 0.83 0.98
0.13 0.16 0.16 0.21 0.27 0.32 0.31 0.33 0.41 0.52 0.60 0.64 0.66 0.72 0.80 0.78 0.76 0.73 0.68 0.65 0.67 0.75 0.77 0.77 0.83 0.88 0.89 0.90 0.96 0.95 0.90 0.87 0.83 0.79 0.80 0.81 0.83 0.90 0.89 0.84 0.80 0.77 0.85
0.14 0.14 0.16 0.19 0.24 0.27 0.31 0.34 0.38 0.46 0.57 0.66 0.68 0.70 0.79 0.83 0.81 0.85 0.84 0.74 0.67 0.69 0.77 0.81 0.83 0.91 0.96 0.95 0.98 1.01 1.02 1.06 1.02 0.93 0.88 0.87 0.87 0.93 0.96 1.01 0.97 0.87 0.81
0.16 0.15 0.15 0.17 0.22 0.25 0.30 0.33 0.36 0.41 0.51 0.65 0.70 0.74 0.77 0.84 0.85 0.87 0.93 0.93 0.90 0.91 0.91 0.96 1.00 1.03 1.07 1.11 1.13 1.14 1.19 1.24 1.24 1.18 1.13 1.02 0.99 1.03 1.00 1.02 1.04 0.97 0.88
0.17 0.15 0.15 0.16 0.21 0.24 0.28 0.31 0.32 0.39 0.48 0.64 0.75 0.76 0.79 0.80 0.84 0.88 0.92 1.04 1.11 1.18 1.24 1.22 1.23 1.25 1.30 1.42 1.50 1.49 1.47 1.42 1.38 1.35 1.32 1.25 1.19 1.17 1.15 1.16 1.11 1.05 1.05
0.13 0.13 0.15 0.17 0.19 0.23 0.25 0.26 0.29 0.35 0.44 0.60 0.70 0.76 0.82 0.91 0.98 1.00 1.02 1.07 1.19 1.26 1.27 1.30 1.33 1.33 1.49 1.79 1.91 1.76 1.55 1.41 1.33 1.28 1.27 1.30 1.39 1.39 1.41 1.47 1.35 1.25 1.28
0.11 0.11 0.13 0.17 0.19 0.21 0.24 0.23 0.25 0.32 0.41 0.56 0.64 0.72 0.86 0.97 1.09 1.11 1.15 1.17 1.22 1.30 1.32 1.28 1.29 1.28 1.39 1.78 1.90 1.55 1.24 1.16 1.21 1.21 1.14 1.12 1.26 1.32 1.37 1.48 1.48 1.48 1.52
0.09 0.09 0.11 0.15 0.18 0.20 0.20 0.21 0.24 0.29 0.35 0.46 0.59 0.66 0.80 0.92 1.02 1.05 1.09 1.12 1.06 1.05 1.15 1.21 1.15 1.11 1.19 1.52 1.62 1.33 0.95 0.85 0.93 0.97 0.98 0.96 1.00 1.16 1.13 1.19 1.23 1.30 1.41
0.11 0.11 0.12 0.13 0.15 0.17 0.18 0.18 0.19 0.24 0.33 0.41 0.54 0.59 0.68 0.82 0.88 0.94 0.99 1.01 0.93 0.92 1.02 1.04 0.95 0.88 0.92 1.25 1.40 1.19 0.85 0.79 0.84 0.86 0.88 0.87 0.87 1.01 1.18 1.22 1.10 1.03 1.13
0.11 0.11 0.12 0.12 0.12 0.15 0.17 0.17 0.17 0.19 0.26 0.34 0.45 0.52 0.60 0.76 0.77 0.83 0.92 0.91 0.91 0.90 0.87 0.86 0.81 0.75 0.77 1.03 1.32 1.19 0.82 0.85 0.85 0.84 0.88 0.83 0.76 1.00 1.19 1.19 1.10 0.98 0.99
0.10 0.10 0.10 0.09 0.10 0.13 0.14 0.14 0.15 0.17 0.22 0.29 0.37 0.43 0.48 0.62 0.65 0.67 0.73 0.75 0.77 0.81 0.81 0.79 0.74 0.72 0.68 0.85 1.22 1.27 0.88 0.85 0.83 0.82 0.84 0.93 0.91 1.05 1.11 1.04 1.07 1.09 0.98
0.11 0.10 0.10 0.10 0.10 0.12 0.14 0.14 0.14 0.16 0.20 0.25 0.30 0.35 0.40 0.46 0.51 0.56 0.60 0.64 0.67 0.72 0.77 0.77 0.71 0.63 0.63 0.71 0.99 1.33 1.08 0.88 0.80 0.80 0.83 0.84 0.96 0.99 1.03 1.05 1.05 1.17 1.04
0.14 0.12 0.11 0.10 0.10 0.12 0.13 0.11 0.12 0.16 0.18 0.23 0.28 0.33 0.38 0.39 0.43 0.48 0.54 0.56 0.64 0.75 0.78 0.75 0.72 0.65 0.62 0.68 0.87 1.13 1.23 1.07 0.86 0.80 0.69 0.70 0.85 0.89 0.96 0.97 1.03 1.09 1.06
0.15 0.13 0.13 0.13 0.12 0.11 0.12 0.11 0.11 0.15 0.19 0.23 0.27 0.32 0.37 0.34 0.41 0.48 0.55 0.58 0.66 0.76 0.78 0.74 0.71 0.69 0.67 0.74 0.92 0.94 1.00 1.08 0.95 0.89 0.89 0.80 0.83 0.85 0.80 0.83 0.94 0.96 0.93
0.13 0.12 0.12 0.14 0.13 0.12 0.11 0.10 0.11 0.15 0.20 0.23 0.26 0.31 0.38 0.39 0.39 0.45 0.54 0.59 0.64 0.79 0.85 0.81 0.78 0.71 0.69 0.81 1.03 0.96 0.89 0.99 1.00 0.97 0.94 0.90 0.89 0.87 0.80 0.80 0.80 0.78 0.83
0.13 0.12 0.12 0.13 0.13 0.13 0.10 0.10 0.13 0.18 0.22 0.24 0.26 0.31 0.39 0.43 0.41 0.43 0.49 0.57 0.61 0.80 0.96 0.89 0.90 0.88 0.88 0.98 1.18 1.16 1.09 1.12 1.14 1.12 1.09 1.01 0.97 0.95 0.88 0.81 0.75 0.75 0.81
0.14 0.13 0.12 0.12 0.12 0.11 0.10 0.11 0.14 0.19 0.25 0.29 0.31 0.35 0.42 0.43 0.43 0.43 0.47 0.55 0.59 0.66 0.70 0.76 0.85 0.84 0.94 1.00 0.96 1.02 1.07 1.10 1.15 1.15 1.10 0.93 0.83 0.82 0.79 0.78 0.76 0.72 0.70